Presure
180 182 189 174 190 176 180 187 224 208 199 182 111 180 119 118 109 116 190 97 125 123 123 121 132 122 101 99 97 90 92 92 94 95 91 94 92 95 97 94 92 90 91
181 179 185 181 186 184 173 178 195 203 209 180 111 113 116 103 113 178 101 116 192 143 155 87 133 131 133 98 94 92 90 91 90 89 90 92 91 96 97 101 92 102 89
178 182 179 182 187 179 178 177 176 201 194 152 99 105 101 126 103 108 189 158 162 176 118 123 113 135 136 111 95 95 89 89 89 87 90 91 93 96 97 92 104 88 91
182 178 186 177 187 191 177 175 185 178 210 194 156 93 111 141 125 120 109 172 105 117 184 123 134 167 92 118 90 93 89 93 97 95 93 93 94 94 90 99 90 90 98
196 185 179 184 171 179 181 174 172 172 178 196 197 200 97 99 115 133 112 114 102 92 98 174 120 130 114 92 136 92 94 94 95 91 96 87 99 93 90 93 100 96 100
220 195 188 184 182 181 172 178 172 181 170 170 190 192 193 110 97 100 117 106 114 176 97 96 139 154 127 106 140 101 98 93 91 91 95 91 92 97 104 93 103 95 105
190 212 201 185 188 184 175 185 174 185 172 176 176 180 202 212 111 108 148 180 96 112 116 112 117 100 125 127 170 89 91 100 93 92 90 84 96 98 101 101 103 103 105
197 188 221 201 182 187 174 181 179 163 174 177 170 178 178 196 200 201 196 97 107 132 111 121 128 172 92 94 88 86 85 90 93 94 92 96 99 102 103 109 101 110 104
176 194 152 224 194 184 184 172 182 179 171 170 178 218 168 177 180 195 193 180 231 102 92 87 96 91 165 97 92 90 90 90 93 92 101 101 100 100 103 103 106 103 108
189 188 191 184 221 197 181 181 184 174 179 173 170 159 177 175 170 174 180 177 120 120 125 92 92 91 93 107 112 141 141 178 126 100 93 98 141 103 114 106 103 108 110
197 192 190 183 185 150 192 181 179 182 174 170 170 170 173 175 171 176 165 169 165 169 152 126 190 135 101 101 101 101 111 130 125 180 141 98 102 104 105 107 110 110 178
201 200 194 189 182 184 215 183 181 179 182 179 172 67 169 172 170 179 168 179 169 178 169 165 104 104 104 220 203 104 112 104 103 101 104 103 105 109 109 109 185 164 176
216 201 196 191 191 182 190 210 182 175 181 180 176 172 172 168 170 165 170 175 170 181 203 194 177 176 176 179 234 144 130 131 117 110 110 110 124 130 181 182 193 199 199
226 212 198 196 193 195 183 195 199 181 172 182 182 174 176 169 168 164 167 173 172 178 171 192 182 130 172 178 178 175 229 218 211 220 203 202 199 194 196 197 186 183 193
229 221 208 199 200 194 193 184 198 193 179 162 173 178 176 173 170 167 169 171 171 179 183 190 175 188 184 183 173 176 177 176 172 172 181 212 212 212 209 210 207 212 208
231 223 216 204 204 200 187 178 185 195 192 182 177 170 174 178 174 171 167 176 165 170 174 180 168 183 173 179 174 179 175 176 178 179 177 172 175 174 171 217 216 204 209
236 230 221 212 207 204 198 193 187 183 198 195 186 178 170 173 170 172 168 173 154 170 175 185 180 180 175 175 197 176 170 172 174 176 183 178 180 178 177 164 162 167 172
240 230 226 215 210 201 199 198 189 191 182 198 194 186 180 176 172 171 170 173 174 172 174 175 173 179 174 178 176 174 177 178 174 177 179 176 172 171 172 177 177 178 178
251 232 231 224 215 210 207 201 200 196 185 178 188 198 188 183 183 180 174 165 176 177 178 181 175 178 179 180 177 182 180 179 179 177 177 178 182 180 176 173 177 173 172
291 251 239 233 229 160 202 207 203 201 197 186 173 184 205 185 186 185 180 183 182 180 182 177 185 181 183 183 182 189 185 181 179 178 176 191 185 183 189 185 183 183 183
378 282 251 244 238 230 222 208 204 203 201 197 192 174 183 182 198 189 187 187 193 196 189 190 199 198 190 188 189 190 193 195 189 184 190 192 183 181 186 184 183 185 188
369 361 276 253 242 238 230 219 215 209 205 199 195 195 179 177 188 188 186 196 175 189 188 199 187 196 199 204 202 201 200 196 195 197 199 192 191 192 191 189 186 191 189
340 342 332 280 254 245 234 231 215 214 211 206 200 149 195 111 183 181 173 189 185 168 172 192 191 193 193 192 209 209 202 201 200 203 196 199 201 195 194 194 192 193 195
330 334 344 321 279 256 248 237 227 217 213 206 204 195 196 195 195 201 197 187 185 185 187 192 187 194 204 202 203 207 207 206 202 201 196 195 196 197 196 196 195 197 193
331 339 359 361 356 281 263 251 242 224 213 211 210 196 190 187 194 201 200 192 199 194 175 149 175 181 121 141 200 190 210 209 211 209 205 202 199 198 199 199 201 201 202
331 331 324 334 362 353 288 265 251 245 233 216 213 212 195 196 192 185 192 202 197 189 200 193 178 183 183 183 181 183 184 180 146 192 191 200 219 218 217 203 200 200 199
Wind_Speed
92 83 79 79 72 74 72 70 61 70 66 69 74 70 68 67 60 60 78 49 56 55 53 51 56 50 38 34 31 27 26 24 24 24 22 23 21 23 26 24 25 23 26
90 84 81 80 78 77 81 78 65 69 72 74 75 73 68 59 63 73 53 58 77 63 67 34 59 59 57 38 33 31 28 27 26 25 25 26 23 28 30 31 28 34 27
92 87 86 83 80 82 82 79 80 63 71 68 66 66 62 75 63 63 76 72 74 72 55 57 50 62 62 47 36 35 32 30 30 28 29 30 30 32 32 30 38 28 33
98 93 91 88 84 80 84 84 76 78 62 72 77 65 72 77 75 69 61 75 49 59 74 58 64 68 41 54 36 38 34 35 38 36 35 35 34 34 32 38 33 36 43
103 100 94 94 89 86 84 86 84 83 79 66 75 77 67 65 72 80 67 66 59 52 53 69 60 65 60 42 65 40 40 40 40 38 41 34 41 38 34 37 43 42 49
103 105 99 96 93 91 91 88 87 82 87 87 75 78 81 70 65 66 74 66 67 76 57 54 67 72 68 55 67 47 46 42 40 41 44 41 40 45 50 39 48 45 55
98 103 104 96 96 95 94 90 89 76 92 90 86 83 74 74 77 72 82 79 63 70 70 66 67 57 71 57 69 42 43 51 46 47 44 33 47 49 52 49 52 54 56
102 98 104 101 97 96 96 92 94 101 95 90 89 85 85 80 80 81 84 68 69 75 69 73 74 76 52 51 46 45 46 48 53 53 50 52 55 56 54 59 54 61 60
96 102 74 104 101 97 98 99 99 103 100 96 92 65 90 89 86 83 81 78 76 69 61 55 63 58 75 54 54 51 52 54 56 53 63 65 60 57 59 59 62 62 67
105 105 101 95 105 102 101 101 103 100 99 98 94 98 95 93 92 89 81 81 66 77 64 63 63 57 58 67 68 70 74 74 62 65 59 63 65 65 64 65 64 68 70
112 109 105 101 99 72 105 106 103 103 102 102 100 99 97 94 91 86 91 91 94 90 83 79 79 76 69 69 69 71 74 72 69 73 69 66 68 69 70 70 72 72 68
117 115 110 104 104 101 107 106 106 108 113 106 105 23 98 95 92 88 103 99 99 93 92 92 77 76 77 91 92 77 77 74 74 72 76 73 74 75 73 73 82 62 68
123 119 115 110 106 105 105 110 109 112 108 113 109 108 103 96 98 99 105 103 103 98 82 87 90 86 84 79 82 85 84 85 84 83 82 81 80 81 79 78 85 85 82
127 124 119 114 109 109 105 108 112 113 116 111 109 108 106 103 97 104 111 110 109 102 95 89 88 70 87 82 80 79 85 90 90 89 88 87 87 84 81 81 77 77 82
131 127 124 118 115 111 110 110 110 116 117 109 110 108 108 107 106 111 115 116 109 103 100 95 96 86 86 83 82 80 80 81 82 81 83 85 84 84 85 82 81 73 73
136 130 127 123 120 116 115 115 112 113 117 117 114 109 106 107 111 116 118 118 112 107 102 103 93 94 91 86 87 85 86 87 85 84 84 85 82 80 79 77 75 73 73
140 134 128 124 124 120 117 118 115 116 116 119 114 113 113 115 120 118 116 114 99 108 110 110 106 101 95 92 91 90 91 90 90 88 85 86 84 83 83 83 81 80 79
141 134 129 125 124 122 121 120 120 119 116 118 116 119 121 117 118 117 121 119 115 119 118 116 112 109 99 100 98 94 96 95 95 91 90 89 88 88 86 84 82 82 82
145 138 136 130 126 126 124 122 123 122 119 118 116 123 122 120 129 129 120 124 125 120 122 123 114 113 111 108 104 103 100 98 97 96 94 93 92 90 89 88 87 87 88
138 149 144 138 134 87 121 126 126 123 123 123 122 123 125 125 123 126 124 131 128 128 135 122 123 120 120 116 114 113 105 102 101 99 98 97 94 94 94 93 92 92 93
85 143 149 147 141 137 133 128 127 127 126 126 127 124 122 126 131 129 132 130 130 131 135 131 127 123 124 123 120 115 113 112 107 106 104 101 100 98 97 95 94 94 93
84 88 146 150 146 142 137 132 130 129 129 129 128 128 127 130 133 129 125 133 128 132 133 130 129 128 128 125 124 121 118 117 114 111 107 104 104 104 102 99 96 96 93
92 95 114 147 150 147 140 137 132 133 132 132 132 87 133 68 134 133 128 133 129 121 125 131 133 134 126 125 127 122 120 120 117 114 108 108 108 106 105 104 101 99 97
96 97 102 124 148 150 150 146 140 136 134 134 135 135 136 137 139 137 137 133 131 132 137 137 129 133 139 135 130 123 120 121 117 113 110 110 108 107 106 107 103 102 98
96 96 94 97 104 149 153 152 149 141 138 139 139 138 135 136 140 140 140 135 135 139 130 98 124 127 71 89 127 121 124 120 121 119 118 115 113 112 109 107 108 107 107
99 101 99 100 97 104 147 154 154 153 148 142 142 142 142 143 141 135 139 145 139 139 141 136 129 131 128 127 124 125 123 117 89 114 110 111 118 118 117 112 109 109 109
Wind_Direction
221 219 214 210 212 215 218 218 219 221 220 220 225 221 224 227 228 231 226 226 232 232 233 233 233 234 229 230 230 237 243 251 255 260 268 273 280 290 294 296 299 300 305
219 220 218 213 212 212 217 219 217 216 220 216 225 226 225 224 229 227 226 234 231 232 235 227 234 237 238 232 235 239 247 253 258 262 269 274 279 288 289 295 294 304 297
220 218 218 217 214 213 216 218 217 217 217 220 222 222 222 228 228 227 231 230 231 232 234 235 236 238 240 236 237 240 246 252 258 260 264 272 278 282 285 285 297 291 296
217 216 217 216 217 212 216 219 218 218 216 221 222 221 227 230 230 232 233 230 227 235 234 237 238 239 239 242 242 245 251 253 257 261 266 271 276 279 278 289 288 290 298
215 217 213 216 215 215 215 219 223 222 222 217 222 223 222 224 230 231 234 235 231 229 230 235 238 239 237 244 245 249 250 254 257 262 267 264 277 276 278 282 291 293 300
217 217 215 214 213 214 216 217 221 222 224 225 223 223 226 227 226 228 234 232 236 236 233 235 238 242 241 242 245 247 250 255 259 263 268 268 273 278 283 280 293 291 298
218 217 217 215 214 214 216 215 219 227 226 225 225 226 226 231 231 230 233 233 233 236 238 238 238 240 241 243 247 250 256 257 262 264 265 255 276 280 282 287 291 292 299
217 217 217 216 216 214 217 215 216 222 225 227 228 229 230 227 230 230 232 231 234 236 237 240 241 244 241 243 244 247 251 257 261 263 261 269 273 277 282 285 289 295 297
214 218 215 217 216 216 216 219 216 219 222 225 225 225 234 233 234 232 233 235 237 233 232 235 239 238 244 243 245 248 251 255 261 266 272 276 280 282 286 290 291 292 294
214 215 215 213 216 215 216 218 218 223 223 224 226 227 230 231 234 236 234 236 235 236 238 236 238 241 244 246 249 251 253 256 257 262 263 269 269 278 280 284 285 288 290
216 216 214 211 213 217 215 216 219 220 224 225 228 229 232 232 234 238 238 236 237 237 238 240 243 245 247 250 252 253 254 256 259 260 264 268 271 275 277 280 284 285 284
215 217 217 213 211 213 216 217 218 220 223 223 226 239 232 234 234 236 239 237 237 236 238 239 245 245 247 246 248 253 254 258 259 260 264 266 269 272 275 279 272 275 283
215 215 217 215 214 212 215 216 218 223 222 223 225 228 230 231 233 236 243 243 239 239 238 239 241 242 244 247 247 252 254 255 257 259 262 266 268 270 269 271 271 273 276
217 215 216 216 214 215 213 217 218 221 226 225 225 228 231 233 235 237 239 241 243 243 242 240 241 243 247 246 248 251 249 253 256 253 259 259 261 264 266 268 272 273 275
218 216 215 216 216 215 215 215 218 219 223 226 227 227 229 232 234 238 241 244 245 246 245 246 243 244 246 248 248 251 253 254 254 255 257 260 262 264 266 268 269 271 273
218 216 215 215 216 216 215 217 217 221 223 225 226 228 230 232 235 237 240 242 246 248 251 250 247 249 248 249 251 251 251 252 253 255 256 258 259 261 264 268 269 269 271
218 218 217 215 217 216 217 218 217 220 223 225 226 228 229 231 234 239 243 247 247 250 251 253 253 250 249 249 251 250 251 253 254 255 257 259 260 261 263 265 267 270 272
218 220 220 217 217 217 217 219 219 220 221 225 224 228 230 232 236 237 241 244 244 245 247 248 250 252 250 251 250 250 251 253 255 257 258 259 260 262 263 265 267 269 271
216 220 221 220 218 218 218 218 221 221 220 223 224 227 229 231 232 236 237 245 244 245 248 248 250 253 253 252 252 253 252 253 255 256 257 259 261 263 265 267 267 269 270
212 218 221 222 223 225 220 219 220 222 222 222 225 227 228 231 234 237 237 241 242 245 246 248 248 249 252 254 254 254 256 256 257 259 261 262 261 263 264 264 265 266 268
222 214 218 221 223 223 223 220 220 222 223 224 225 227 228 231 233 234 236 239 240 241 246 248 247 247 250 252 254 256 256 256 257 258 258 259 263 264 265 267 268 269 270
218 217 216 220 222 224 224 223 223 222 223 225 226 228 228 232 234 235 236 238 242 243 245 247 252 250 250 250 250 253 254 256 257 257 257 261 262 264 266 268 270 270 271
220 218 219 218 221 223 224 226 223 224 224 225 226 232 229 232 234 236 237 239 240 244 249 246 249 253 254 253 253 253 255 256 257 259 260 260 261 263 265 268 270 271 272
222 222 223 219 219 223 223 224 225 225 226 225 227 228 230 232 234 235 236 236 239 241 244 246 247 250 250 253 256 254 254 256 258 261 263 263 264 265 267 268 268 270 270
224 225 222 224 225 221 224 225 225 225 225 228 228 229 232 236 236 237 238 236 237 240 247 250 251 251 252 255 255 260 258 258 258 258 259 261 262 263 265 267 268 269 269
224 225 226 226 226 226 222 225 226 227 227 227 230 231 232 233 237 241 240 241 238 241 242 244 250 252 253 254 256 257 259 260 259 260 259 260 261 262 263 266 267 268 268